ARIANE 44LP DEB, 26808

Orbit data source: Space-Track

ARIANE 44LP DEB, 26808 is space debris in HEO originally from a launch on Sun, 11 Dec 1988 UTC launched from the French Guiana (FRGUI). Debris objects in space refer to the collection of defunct objects orbiting the Earth. Examples of debris include non-operational satellites, rocket bodies, and fragments generated from explosions, collisions, or faulty payload assembly.

Loading next visibility...
Identifier
26808, 1988-109L
Orbit
HEO
Country
Flag of FRFR
Related business
Manufacturer
Unknown
Mission
Spacecraft
Bus & Motor
Unknown
Mass
Unknown
Launch date (UTC)
1988-12-11 (37 years ago)
Launch vehicle
Unknown
Launch site
French Guiana (FRGUI)
Object type
Payload
Rocket body
Debris
Shape & HBR
Unknown
Radar Cross Section
Medium (>0.1 m² and <1 m²)

Expand to show TLE details & history
Last TLE update: 6 days ago

TLE from 6 days ago
0 ARIANE 44LP DEB
1 26808U 88109L   25245.17267677  .00001228  00000-0  37398-1 0  9995
2 26808   6.0309 130.9117 7206331 283.3442 204.0330  2.14428381 90233
Epoch: 2025-09-02T04:08Z
TLE epoch observation values (Epoch: 2025-09-02T04:08:39.272Z)
Latitude
5.71209°
Longitude
-163.70127°
Altitude
36,754.169 km
Speed
1.671 km/s
True Right ascension
16h 00m 07s
True Declination
5° 42' 23"
Sunlit
Object was in daylight at epoch
Visualization orbit readout
Latitude
Unknown
Longitude
Unknown
Altitude
Unknown
Speed
Unknown
Apparent Right ascension
Unknown
Apparent Declination
Unknown
Sunlit
N/A
Visualization observer readout
Local Sidereal Time
07:07:11
Azimuth
Unknown
Elevation
Unknown
Doppler factor
Unknown
Orbital elements
Apogee altitude
37,339.466 km
Perigee altitude
719.978 km
Semi-major axis
25,407.859 km
Eccentricity
0.72063
Inclination
6.0309°
RAAN
130.9117°
Arg. of periapsis
283.3442°
True anomaly
185.67544°
Mean anomaly
204.033°
Eccentric anomaly
194.02603°
Mean motion
0.53591 °/min
Orbital period
671.76 mins
BSTAR
0.037398
Loading maneuver chart data...
Computing Atmospheric mass density...
Loading historical data...
Loading historical data...
Loading historical data...
Loading historical data...
Loading historical data...
Loading historical data...
Loading historical data...

Documentation

Showing up to 5 results
|